Time,TemperatureF,DewpointF,PressureIn,WindDirection,WindDirectionDegrees,WindSpeedMPH,WindSpeedGustMPH,Humidity,HourlyPrecipIn,Conditions,Clouds,dailyrainin,SoftwareType,DateUTC
2013-01-09 00:00:00,50.0,50.0,29.95,SSW,200,29.0,32.0,100,-99.99,,,-99.99,,2013-01-09 08:00:00,
2013-01-09 00:22:00,50.0,50.0,29.95,SSW,200,29.0,32.0,100,-99.99,,,-99.99,,2013-01-09 08:22:00,
2013-01-09 00:32:00,50.0,50.0,29.95,SSW,200,29.0,32.0,100,-99.99,,,-99.99,,2013-01-09 08:32:00,
2013-01-09 00:42:00,50.0,50.0,29.95,SSW,200,29.0,32.0,100,-99.99,,,-99.99,,2013-01-09 08:42:00,
2013-01-09 00:52:00,50.0,50.0,29.95,SSW,200,29.0,32.0,100,-99.99,,,-99.99,,2013-01-09 08:52:00,
2013-01-09 01:00:00,51.0,50.0,29.93,SSW,210,30.0,36.0,98,-99.99,,,-99.99,,2013-01-09 09:00:00,
2013-01-09 01:11:00,51.0,50.0,29.93,SSW,210,30.0,36.0,98,-99.99,,,-99.99,,2013-01-09 09:11:00,
2013-01-09 01:22:00,51.0,50.0,29.93,SSW,210,30.0,36.0,98,-99.99,,,-99.99,,2013-01-09 09:22:00,
2013-01-09 01:32:00,51.0,50.0,29.93,SSW,210,30.0,36.0,98,-99.99,,,-99.99,,2013-01-09 09:32:00,
2013-01-09 01:42:00,51.0,50.0,29.93,SSW,210,30.0,36.0,98,-99.99,,,-99.99,,2013-01-09 09:42:00,
2013-01-09 01:52:00,51.0,50.0,29.93,SSW,210,30.0,36.0,98,-99.99,,,-99.99,,2013-01-09 09:52:00,
2013-01-09 02:00:00,50.0,50.0,29.90,SSW,200,26.0,32.0,99,-99.99,,,-99.99,,2013-01-09 10:00:00,
2013-01-09 02:22:00,50.0,50.0,29.90,SSW,200,26.0,32.0,99,-99.99,,,-99.99,,2013-01-09 10:22:00,
2013-01-09 02:32:00,50.0,50.0,29.90,SSW,200,26.0,32.0,99,-99.99,,,-99.99,,2013-01-09 10:32:00,
2013-01-09 02:42:00,50.0,50.0,29.90,SSW,200,26.0,32.0,99,-99.99,,,-99.99,,2013-01-09 10:42:00,
2013-01-09 02:52:00,50.0,50.0,29.90,SSW,200,26.0,32.0,99,-99.99,,,-99.99,,2013-01-09 10:52:00,
2013-01-09 03:00:00,50.0,50.0,29.86,South,190,30.0,37.0,98,-99.99,,,-99.99,,2013-01-09 11:00:00,
2013-01-09 03:11:00,50.0,50.0,29.86,South,190,30.0,37.0,98,-99.99,,,-99.99,,2013-01-09 11:11:00,
2013-01-09 03:22:00,50.0,50.0,29.86,South,190,30.0,37.0,98,-99.99,,,-99.99,,2013-01-09 11:22:00,
2013-01-09 03:32:00,50.0,50.0,29.86,South,190,30.0,37.0,98,-99.99,,,-99.99,,2013-01-09 11:32:00,
2013-01-09 03:42:00,50.0,50.0,29.86,South,190,30.0,37.0,98,-99.99,,,-99.99,,2013-01-09 11:42:00,
2013-01-09 03:52:00,50.0,50.0,29.86,South,190,30.0,37.0,98,-99.99,,,-99.99,,2013-01-09 11:52:00,
2013-01-09 04:00:00,50.0,50.0,29.80,South,190,33.0,43.0,97,-99.99,,,-99.99,,2013-01-09 12:00:00,
2013-01-09 04:22:00,50.0,50.0,29.80,South,190,33.0,43.0,97,-99.99,,,-99.99,,2013-01-09 12:22:00,
2013-01-09 04:32:00,50.0,50.0,29.80,South,190,33.0,43.0,97,-99.99,,,-99.99,,2013-01-09 12:32:00,
2013-01-09 04:42:00,50.0,50.0,29.80,South,190,33.0,43.0,97,-99.99,,,-99.99,,2013-01-09 12:42:00,
2013-01-09 04:52:00,50.0,50.0,29.80,South,190,33.0,43.0,97,-99.99,,,-99.99,,2013-01-09 12:52:00,
2013-01-09 05:00:00,45.0,45.0,29.82,WNW,290,22.0,26.0,100,-99.99,,,-99.99,,2013-01-09 13:00:00,
2013-01-09 05:11:00,45.0,45.0,29.82,WNW,290,22.0,26.0,100,-99.99,,,-99.99,,2013-01-09 13:11:00,
2013-01-09 05:22:00,45.0,45.0,29.82,WNW,290,22.0,26.0,100,-99.99,,,-99.99,,2013-01-09 13:22:00,
2013-01-09 05:32:00,45.0,45.0,29.82,WNW,290,22.0,26.0,100,-99.99,,,-99.99,,2013-01-09 13:32:00,
2013-01-09 05:42:00,45.0,45.0,29.82,WNW,290,22.0,26.0,100,-99.99,,,-99.99,,2013-01-09 13:42:00,
2013-01-09 05:52:00,45.0,45.0,29.82,WNW,290,22.0,26.0,100,-99.99,,,-99.99,,2013-01-09 13:52:00,
2013-01-09 06:00:00,45.0,45.0,29.83,WNW,300,14.0,16.0,99,-99.99,,,-99.99,,2013-01-09 14:00:00,
2013-01-09 06:22:00,45.0,45.0,29.83,WNW,300,14.0,16.0,99,-99.99,,,-99.99,,2013-01-09 14:22:00,
2013-01-09 06:32:00,45.0,45.0,29.83,WNW,300,14.0,16.0,99,-99.99,,,-99.99,,2013-01-09 14:32:00,
2013-01-09 06:42:00,45.0,45.0,29.83,WNW,300,14.0,16.0,99,-99.99,,,-99.99,,2013-01-09 14:42:00,
2013-01-09 06:52:00,45.0,45.0,29.83,WNW,300,14.0,16.0,99,-99.99,,,-99.99,,2013-01-09 14:52:00,
2013-01-09 07:00:00,44.0,43.0,29.87,WNW,300,16.0,18.0,95,-99.99,,,-99.99,,2013-01-09 15:00:00,
2013-01-09 07:12:00,44.0,43.0,29.87,WNW,300,16.0,18.0,95,-99.99,,,-99.99,,2013-01-09 15:12:00,
2013-01-09 07:22:00,44.0,43.0,29.87,WNW,300,16.0,18.0,95,-99.99,,,-99.99,,2013-01-09 15:22:00,
2013-01-09 07:32:00,44.0,43.0,29.87,WNW,300,16.0,18.0,95,-99.99,,,-99.99,,2013-01-09 15:32:00,
2013-01-09 07:42:00,44.0,43.0,29.87,WNW,300,16.0,18.0,95,-99.99,,,-99.99,,2013-01-09 15:42:00,
2013-01-09 07:52:00,44.0,43.0,29.87,WNW,300,16.0,18.0,95,-99.99,,,-99.99,,2013-01-09 15:52:00,
2013-01-09 08:00:00,43.0,43.0,29.89,WSW,240,13.0,15.0,100,-99.99,,,-99.99,,2013-01-09 16:00:00,
2013-01-09 08:11:00,43.0,43.0,29.89,WSW,240,13.0,15.0,100,-99.99,,,-99.99,,2013-01-09 16:11:00,
2013-01-09 08:22:00,43.0,43.0,29.89,WSW,240,13.0,15.0,100,-99.99,,,-99.99,,2013-01-09 16:22:00,
2013-01-09 08:32:00,43.0,43.0,29.89,WSW,240,13.0,15.0,100,-99.99,,,-99.99,,2013-01-09 16:32:00,
2013-01-09 08:42:00,43.0,43.0,29.89,WSW,240,13.0,15.0,100,-99.99,,,-99.99,,2013-01-09 16:42:00,
2013-01-09 08:52:00,43.0,43.0,29.89,WSW,240,13.0,15.0,100,-99.99,,,-99.99,,2013-01-09 16:52:00,
2013-01-09 09:00:00,44.0,44.0,29.92,WNW,290,26.0,31.0,100,-99.99,,,-99.99,,2013-01-09 17:00:00,
2013-01-09 09:11:00,44.0,44.0,29.92,WNW,290,26.0,31.0,100,-99.99,,,-99.99,,2013-01-09 17:11:00,
2013-01-09 09:22:00,44.0,44.0,29.92,WNW,290,26.0,31.0,100,-99.99,,,-99.99,,2013-01-09 17:22:00,
2013-01-09 09:32:00,44.0,44.0,29.92,WNW,290,26.0,31.0,100,-99.99,,,-99.99,,2013-01-09 17:32:00,
2013-01-09 09:42:00,44.0,44.0,29.92,WNW,290,26.0,31.0,100,-99.99,,,-99.99,,2013-01-09 17:42:00,
2013-01-09 09:52:00,44.0,44.0,29.92,WNW,290,26.0,31.0,100,-99.99,,,-99.99,,2013-01-09 17:52:00,
2013-01-09 10:00:00,45.0,41.0,29.95,NW,310,16.0,20.0,88,-99.99,,,-99.99,,2013-01-09 18:00:00,
2013-01-09 10:12:00,45.0,41.0,29.95,NW,310,16.0,20.0,88,-99.99,,,-99.99,,2013-01-09 18:12:00,
2013-01-09 10:22:00,45.0,41.0,29.95,NW,310,16.0,20.0,88,-99.99,,,-99.99,,2013-01-09 18:22:00,
2013-01-09 10:32:00,45.0,41.0,29.95,NW,310,16.0,20.0,88,-99.99,,,-99.99,,2013-01-09 18:32:00,
2013-01-09 10:42:00,45.0,41.0,29.95,NW,310,16.0,20.0,88,-99.99,,,-99.99,,2013-01-09 18:42:00,
2013-01-09 10:52:00,45.0,41.0,29.95,NW,310,16.0,20.0,88,-99.99,,,-99.99,,2013-01-09 18:52:00,
2013-01-09 11:00:00,46.0,40.0,29.96,WNW,290,13.0,15.0,80,-99.99,,,-99.99,,2013-01-09 19:00:00,
2013-01-09 11:22:00,46.0,40.0,29.96,WNW,290,13.0,15.0,80,-99.99,,,-99.99,,2013-01-09 19:22:00,
2013-01-09 11:32:00,46.0,40.0,29.96,WNW,290,13.0,15.0,80,-99.99,,,-99.99,,2013-01-09 19:32:00,
2013-01-09 11:42:00,46.0,40.0,29.96,WNW,290,13.0,15.0,80,-99.99,,,-99.99,,2013-01-09 19:42:00,
2013-01-09 11:52:00,46.0,40.0,29.96,WNW,290,13.0,15.0,80,-99.99,,,-99.99,,2013-01-09 19:52:00,
2013-01-09 12:00:00,43.0,39.0,29.96,SW,230,6.0,7.0,85,-99.99,,,-99.99,,2013-01-09 20:00:00,
2013-01-09 12:11:00,43.0,39.0,29.96,SW,230,6.0,7.0,85,-99.99,,,-99.99,,2013-01-09 20:11:00,
2013-01-09 12:22:00,43.0,39.0,29.96,SW,230,6.0,7.0,85,-99.99,,,-99.99,,2013-01-09 20:22:00,
2013-01-09 12:32:00,43.0,39.0,29.96,SW,230,6.0,7.0,85,-99.99,,,-99.99,,2013-01-09 20:32:00,
2013-01-09 12:42:00,43.0,39.0,29.96,SW,230,6.0,7.0,85,-99.99,,,-99.99,,2013-01-09 20:42:00,
2013-01-09 12:52:00,43.0,39.0,29.96,SW,230,6.0,7.0,85,-99.99,,,-99.99,,2013-01-09 20:52:00,
2013-01-09 14:00:00,46.0,37.0,29.96,WNW,290,15.0,18.0,71,-99.99,,,-99.99,,2013-01-09 22:00:00,
2013-01-09 14:22:00,46.0,37.0,29.96,WNW,290,15.0,18.0,71,-99.99,,,-99.99,,2013-01-09 22:22:00,
2013-01-09 14:32:00,46.0,37.0,29.96,WNW,290,15.0,18.0,71,-99.99,,,-99.99,,2013-01-09 22:32:00,
2013-01-09 14:42:00,46.0,37.0,29.96,WNW,290,15.0,18.0,71,-99.99,,,-99.99,,2013-01-09 22:42:00,
2013-01-09 14:52:00,46.0,37.0,29.96,WNW,290,15.0,18.0,71,-99.99,,,-99.99,,2013-01-09 22:52:00,
2013-01-09 15:00:00,46.0,35.0,29.97,West,280,14.0,16.0,64,-99.99,,,-99.99,,2013-01-09 23:00:00,
2013-01-09 15:12:00,46.0,35.0,29.97,West,280,14.0,16.0,64,-99.99,,,-99.99,,2013-01-09 23:12:00,
2013-01-09 15:52:00,46.0,35.0,29.97,West,280,14.0,16.0,64,-99.99,,,-99.99,,2013-01-09 23:52:00,
2013-01-09 16:00:00,46.0,37.0,29.98,West,280,14.0,18.0,71,-99.99,,,-99.99,,2013-01-10 00:00:00,
2013-01-09 16:22:00,46.0,37.0,29.98,West,280,14.0,18.0,71,-99.99,,,-99.99,,2013-01-10 00:22:00,
2013-01-09 16:32:00,46.0,37.0,29.98,West,280,14.0,18.0,71,-99.99,,,-99.99,,2013-01-10 00:32:00,
2013-01-09 16:42:00,46.0,37.0,29.98,West,280,14.0,18.0,71,-99.99,,,-99.99,,2013-01-10 00:42:00,
2013-01-09 16:52:00,46.0,37.0,29.98,West,280,14.0,18.0,71,-99.99,,,-99.99,,2013-01-10 00:52:00,
2013-01-09 17:00:00,46.0,35.0,29.98,West,280,15.0,18.0,67,-99.99,,,-99.99,,2013-01-10 01:00:00,
2013-01-09 17:11:00,46.0,35.0,29.98,West,280,15.0,18.0,67,-99.99,,,-99.99,,2013-01-10 01:11:00,
2013-01-09 17:22:00,46.0,35.0,29.98,West,280,15.0,18.0,67,-99.99,,,-99.99,,2013-01-10 01:22:00,
2013-01-09 17:32:00,46.0,35.0,29.98,West,280,15.0,18.0,67,-99.99,,,-99.99,,2013-01-10 01:32:00,
2013-01-09 17:42:00,46.0,35.0,29.98,West,280,15.0,18.0,67,-99.99,,,-99.99,,2013-01-10 01:42:00,
2013-01-09 17:52:00,46.0,35.0,29.98,West,280,15.0,18.0,67,-99.99,,,-99.99,,2013-01-10 01:52:00,
2013-01-09 18:00:00,45.0,35.0,29.98,WNW,290,15.0,17.0,67,-99.99,,,-99.99,,2013-01-10 02:00:00,
2013-01-09 18:12:00,45.0,35.0,29.98,WNW,290,15.0,17.0,67,-99.99,,,-99.99,,2013-01-10 02:12:00,
2013-01-09 18:22:00,45.0,35.0,29.98,WNW,290,15.0,17.0,67,-99.99,,,-99.99,,2013-01-10 02:22:00,
2013-01-09 18:32:00,45.0,35.0,29.98,WNW,290,15.0,17.0,67,-99.99,,,-99.99,,2013-01-10 02:32:00,
2013-01-09 18:42:00,45.0,35.0,29.98,WNW,290,15.0,17.0,67,-99.99,,,-99.99,,2013-01-10 02:42:00,
2013-01-09 18:52:00,45.0,35.0,29.98,WNW,290,15.0,17.0,67,-99.99,,,-99.99,,2013-01-10 02:52:00,
2013-01-09 19:00:00,42.0,35.0,29.99,WSW,240,16.0,23.0,75,-99.99,,,-99.99,,2013-01-10 03:00:00,
2013-01-09 19:11:00,42.0,35.0,29.99,WSW,240,16.0,23.0,75,-99.99,,,-99.99,,2013-01-10 03:11:00,
2013-01-09 19:22:00,42.0,35.0,29.99,WSW,240,16.0,23.0,75,-99.99,,,-99.99,,2013-01-10 03:22:00,
2013-01-09 19:32:00,42.0,35.0,29.99,WSW,240,16.0,23.0,75,-99.99,,,-99.99,,2013-01-10 03:32:00,
2013-01-09 19:42:00,42.0,35.0,29.99,WSW,240,16.0,23.0,75,-99.99,,,-99.99,,2013-01-10 03:42:00,
2013-01-09 19:52:00,42.0,35.0,29.99,WSW,240,16.0,23.0,75,-99.99,,,-99.99,,2013-01-10 03:52:00,
2013-01-09 20:00:00,41.0,37.0,29.99,NNW,330,8.0,10.0,85,-99.99,,,-99.99,,2013-01-10 04:00:00,
2013-01-09 20:11:00,41.0,37.0,29.99,NNW,330,8.0,10.0,85,-99.99,,,-99.99,,2013-01-10 04:11:00,
2013-01-09 20:22:00,41.0,37.0,29.99,NNW,330,8.0,10.0,85,-99.99,,,-99.99,,2013-01-10 04:22:00,
2013-01-09 20:32:00,41.0,37.0,29.99,NNW,330,8.0,10.0,85,-99.99,,,-99.99,,2013-01-10 04:32:00,
2013-01-09 20:42:00,41.0,37.0,29.99,NNW,330,8.0,10.0,85,-99.99,,,-99.99,,2013-01-10 04:42:00,
2013-01-09 20:52:00,41.0,37.0,29.99,NNW,330,8.0,10.0,85,-99.99,,,-99.99,,2013-01-10 04:52:00,
2013-01-09 21:00:00,40.0,37.0,30.00,NNW,330,8.0,16.0,90,-99.99,,,-99.99,,2013-01-10 05:00:00,
2013-01-09 21:12:00,40.0,37.0,30.00,NNW,330,8.0,16.0,90,-99.99,,,-99.99,,2013-01-10 05:12:00,
2013-01-09 21:22:00,40.0,37.0,30.00,NNW,330,8.0,16.0,90,-99.99,,,-99.99,,2013-01-10 05:22:00,
2013-01-09 21:32:00,40.0,37.0,30.00,NNW,330,8.0,16.0,90,-99.99,,,-99.99,,2013-01-10 05:32:00,
2013-01-09 21:42:00,40.0,37.0,30.00,NNW,330,8.0,16.0,90,-99.99,,,-99.99,,2013-01-10 05:42:00,
2013-01-09 21:52:00,40.0,37.0,30.00,NNW,330,8.0,16.0,90,-99.99,,,-99.99,,2013-01-10 05:52:00,
2013-01-09 22:00:00,39.0,38.0,30.00,North,0,0.0,3.0,95,-99.99,,,-99.99,,2013-01-10 06:00:00,
2013-01-09 22:11:00,39.0,38.0,30.00,North,0,0.0,3.0,95,-99.99,,,-99.99,,2013-01-10 06:11:00,
2013-01-09 22:22:00,39.0,38.0,30.00,North,0,0.0,3.0,95,-99.99,,,-99.99,,2013-01-10 06:22:00,
2013-01-09 22:32:00,39.0,38.0,30.00,North,0,0.0,3.0,95,-99.99,,,-99.99,,2013-01-10 06:32:00,
2013-01-09 22:42:00,39.0,38.0,30.00,North,0,0.0,3.0,95,-99.99,,,-99.99,,2013-01-10 06:42:00,
2013-01-09 22:52:00,39.0,38.0,30.00,North,0,0.0,3.0,95,-99.99,,,-99.99,,2013-01-10 06:52:00,
2013-01-09 23:00:00,38.0,38.0,30.01,East,90,6.0,7.0,100,-99.99,,,-99.99,,2013-01-10 07:00:00,
2013-01-09 23:11:00,38.0,38.0,30.01,East,90,6.0,7.0,100,-99.99,,,-99.99,,2013-01-10 07:11:00,
2013-01-09 23:22:00,38.0,38.0,30.01,East,90,6.0,7.0,100,-99.99,,,-99.99,,2013-01-10 07:22:00,
2013-01-09 23:32:00,38.0,38.0,30.01,East,90,6.0,7.0,100,-99.99,,,-99.99,,2013-01-10 07:32:00,
2013-01-09 23:42:00,38.0,38.0,30.01,East,90,6.0,7.0,100,-99.99,,,-99.99,,2013-01-10 07:42:00,
2013-01-09 23:52:00,38.0,38.0,30.01,East,90,6.0,7.0,100,-99.99,,,-99.99,,2013-01-10 07:52:00,